Weather History for KMKN - November, 2012

Change the Weather History Date:

Sunday, November 25, 2012

  Actual Average (KSEP) Record (KSEP)
Temperature  
Mean Temperature 64 °F -  
Max Temperature 78 °F 61 °F 84 °F (1926)
Min Temperature 50 °F 40 °F 17 °F (1975)
Degree Days  
Heating Degree Days 1    
Growing Degree Days 14 (Base 50)    
Moisture  
Dew Point 40 °F    
Average Humidity 44    
Maximum Humidity 72    
Minimum Humidity 28    
Precipitation  
Precipitation 0.00 in - - ()
Sea Level Pressure  
Sea Level Pressure 29.94 in    
Wind  
Wind Speed 15 mph (SSW)    
Max Wind Speed 22 mph    
Max Gust Speed 30 mph    
Visibility 10 miles    
Events      
Averages and records for this station are not official NWS values.
T = Trace of Precipitation, MM = Missing Value Source: NWS Daily Summary

Daily Weather History Graph

Daily Weather History Graph

Search for Another Location

Airport or City:

Trip Planner

Search our weather history database for the weather conditions in past years. The results will help you decide how hot, cold, wet, or windy it might be!

Date:

Astronomy

Nov. 25, 2012 Rise Set
Actual Time 7:12 AM CST 5:30 PM CST
Civil Twilight 6:45 AM CST 5:57 PM CST
Nautical Twilight 6:15 AM CST 6:27 PM CST
Astronomical Twilight 5:46 AM CST 6:56 PM CST
Moon 3:43 PM CST (11/25) 4:34 AM CST (11/25)
Length of Visible Light 11h 11m
Length of Day
10h 18m
Waxing Gibbous, 93% of the Moon is Illuminated
Nov 25
Waxing Gibbous
Nov 28
Full
Dec 6
Last Quarter
Dec 13
New
Dec 19
First Quarter

Hourly Weather History & Observations

Time (CST) Temp. Dew Point Humidity Pressure Visibility Wind Dir Wind Speed Gust Speed Precip Events Conditions
12:15 AM 51.8 °F 26.6 °F 38% 30.06 in 10.0 mi SSW 19.6 mph 23.0 mph N/A   Clear
12:35 AM 51.8 °F 26.6 °F 38% 30.05 in 10.0 mi SSW 21.9 mph 28.8 mph N/A   Clear
12:55 AM 51.8 °F 26.6 °F 38% 30.05 in 10.0 mi SSW 18.4 mph 29.9 mph N/A   Clear
1:15 AM 51.8 °F 28.4 °F 41% 30.05 in 10.0 mi SSW 17.3 mph 21.9 mph N/A   Clear
1:35 AM 51.8 °F 28.4 °F 41% 30.04 in 10.0 mi SSW 15.0 mph 21.9 mph N/A   Clear
1:55 AM 51.8 °F 30.2 °F 44% 30.04 in 10.0 mi SSW 15.0 mph 21.9 mph N/A   Clear
2:15 AM 51.8 °F 30.2 °F 44% 30.03 in 10.0 mi SSW 13.8 mph - N/A   Clear
2:35 AM 50.0 °F 30.2 °F 47% 30.02 in 10.0 mi SSW 17.3 mph - N/A   Clear
2:55 AM 51.8 °F 30.2 °F 44% 30.02 in 10.0 mi SSW 15.0 mph - N/A   Clear
3:15 AM 51.8 °F 32.0 °F 47% 30.02 in 10.0 mi SSW 13.8 mph - N/A   Clear
3:35 AM 50.0 °F 32.0 °F 50% 30.02 in 10.0 mi SSW 8.1 mph - N/A   Clear
4:15 AM 50.0 °F 32.0 °F 50% 30.02 in 10.0 mi SSW 12.7 mph 16.1 mph N/A   Clear
4:35 AM 50.0 °F 32.0 °F 50% 30.01 in 10.0 mi SSW 9.2 mph - N/A   Clear
5:15 AM 50.0 °F 32.0 °F 50% 30.00 in 10.0 mi SSW 9.2 mph - N/A   Clear
5:35 AM 50.0 °F 32.0 °F 50% 29.99 in 10.0 mi SSW 11.5 mph - N/A   Clear
5:55 AM 50.0 °F 32.0 °F 50% 29.99 in 10.0 mi SSW 12.7 mph 20.7 mph N/A   Clear
6:15 AM 50.0 °F 32.0 °F 50% 29.99 in 10.0 mi SSW 10.4 mph 18.4 mph N/A   Clear
6:35 AM 50.0 °F 32.0 °F 50% 30.00 in 10.0 mi SSW 10.4 mph - N/A   Clear
6:55 AM 50.0 °F 32.0 °F 50% 30.00 in 10.0 mi SW 8.1 mph - N/A   Clear
7:15 AM 50.0 °F 32.0 °F 50% 29.99 in 10.0 mi SSW 10.4 mph - N/A   Clear
7:35 AM 51.8 °F 32.0 °F 47% 29.99 in 10.0 mi SW 11.5 mph - N/A   Clear
8:15 AM 53.6 °F 33.8 °F 47% 30.00 in 10.0 mi SSW 15.0 mph 21.9 mph N/A   Clear
8:35 AM 53.6 °F 33.8 °F 47% 30.00 in 10.0 mi SW 16.1 mph - N/A   Clear
8:55 AM 55.4 °F 35.6 °F 47% 30.00 in 10.0 mi SW 16.1 mph 25.3 mph N/A   Clear
9:15 AM 57.2 °F 35.6 °F 44% 30.00 in 10.0 mi SW 13.8 mph 21.9 mph N/A   Clear
9:35 AM 59.0 °F 35.6 °F 42% 30.00 in 10.0 mi SW 13.8 mph 19.6 mph N/A   Clear
9:55 AM 60.8 °F 35.6 °F 39% 30.00 in 10.0 mi SW 13.8 mph 21.9 mph N/A   Clear
10:15 AM 62.6 °F 37.4 °F 39% 30.00 in 10.0 mi SW 15.0 mph 23.0 mph N/A   Clear
10:35 AM 62.6 °F 37.4 °F 39% 29.99 in 10.0 mi SSW 17.3 mph 24.2 mph N/A   Clear
10:55 AM 64.4 °F 39.2 °F 40% 29.99 in 10.0 mi SSW 12.7 mph 24.2 mph N/A   Clear
11:15 AM 68.0 °F 39.2 °F 35% 29.98 in 10.0 mi SW 16.1 mph 24.2 mph N/A   Clear
11:35 AM 68.0 °F 39.2 °F 35% 29.97 in 10.0 mi SW 10.4 mph 21.9 mph N/A   Clear
11:55 AM 69.8 °F 41.0 °F 35% 29.96 in 10.0 mi SSW 15.0 mph 20.7 mph N/A   Clear
12:15 PM 73.4 °F 41.0 °F 31% 29.95 in 10.0 mi SW 16.1 mph 21.9 mph N/A   Clear
12:35 PM 73.4 °F 42.8 °F 33% 29.93 in 10.0 mi SW 18.4 mph 26.5 mph N/A   Clear
1:15 PM 77.0 °F 42.8 °F 29% 29.90 in 10.0 mi SW 17.3 mph 25.3 mph N/A   Clear
1:35 PM 77.0 °F 42.8 °F 29% 29.89 in 10.0 mi WSW 15.0 mph 24.2 mph N/A   Clear
1:55 PM 77.0 °F 42.8 °F 29% 29.89 in 10.0 mi SW 15.0 mph 23.0 mph N/A   Clear
2:15 PM 77.0 °F 44.6 °F 32% 29.88 in 10.0 mi WSW 15.0 mph 23.0 mph N/A   Clear
2:35 PM 78.8 °F 44.6 °F 30% 29.87 in 10.0 mi SW 15.0 mph 21.9 mph N/A   Clear
2:55 PM 78.8 °F 44.6 °F 30% 29.86 in 10.0 mi SW 18.4 mph 21.9 mph N/A   Clear
3:15 PM 78.8 °F 42.8 °F 28% 29.86 in 10.0 mi SSW 13.8 mph 21.9 mph N/A   Clear
3:35 PM 78.8 °F 42.8 °F 28% 29.85 in 10.0 mi SW 12.7 mph 18.4 mph N/A   Clear
3:55 PM 78.8 °F 42.8 °F 28% 29.85 in 10.0 mi SSW 15.0 mph 18.4 mph N/A   Clear
4:15 PM 78.8 °F 42.8 °F 28% 29.85 in 10.0 mi SW 12.7 mph 19.6 mph N/A   Clear
4:35 PM 77.0 °F 42.8 °F 29% 29.85 in 10.0 mi SSW 13.8 mph 23.0 mph N/A   Clear
4:55 PM 77.0 °F 42.8 °F 29% 29.85 in 10.0 mi SSW 11.5 mph 20.7 mph N/A   Clear
5:15 PM 75.2 °F 42.8 °F 31% 29.85 in 10.0 mi SSW 9.2 mph - N/A   Clear
5:35 PM 71.6 °F 42.8 °F 35% 29.85 in 10.0 mi SSW 8.1 mph - N/A   Clear
6:15 PM 68.0 °F 42.8 °F 40% 29.85 in 10.0 mi South 5.8 mph - N/A   Clear
6:35 PM 68.0 °F 42.8 °F 40% 29.85 in 10.0 mi South 5.8 mph - N/A   Clear
6:55 PM 64.4 °F 44.6 °F 49% 29.86 in 10.0 mi South 9.2 mph - N/A   Clear
7:15 PM 68.0 °F 46.4 °F 46% 29.86 in 10.0 mi South 9.2 mph - N/A   Clear
7:35 PM 68.0 °F 48.2 °F 49% 29.87 in 10.0 mi South 11.5 mph - N/A   Clear
7:55 PM 68.0 °F 48.2 °F 49% 29.87 in 10.0 mi South 15.0 mph 21.9 mph N/A   Clear
8:15 PM 68.0 °F 48.2 °F 49% 29.87 in 10.0 mi SSW 17.3 mph 21.9 mph N/A   Clear
8:35 PM 66.2 °F 48.2 °F 52% 29.87 in 10.0 mi South 16.1 mph 21.9 mph N/A   Clear
8:55 PM 64.4 °F 50.0 °F 59% 29.87 in 10.0 mi South 16.1 mph 24.2 mph N/A   Clear
9:15 PM 64.4 °F 50.0 °F 59% 29.88 in 10.0 mi SSW 18.4 mph 23.0 mph N/A   Clear
9:35 PM 64.4 °F 50.0 °F 59% 29.88 in 10.0 mi SSW 17.3 mph 24.2 mph N/A   Clear
9:55 PM 62.6 °F 50.0 °F 63% 29.89 in 10.0 mi SSW 16.1 mph 20.7 mph N/A   Clear
10:15 PM 62.6 °F 51.8 °F 68% 29.89 in 10.0 mi SSW 15.0 mph 24.2 mph N/A   Clear
10:35 PM 62.6 °F 51.8 °F 68% 29.89 in 10.0 mi SSW 17.3 mph 24.2 mph N/A   Clear
10:55 PM 62.6 °F 51.8 °F 68% 29.90 in 10.0 mi SSW 13.8 mph 23.0 mph N/A   Clear
11:15 PM 60.8 °F 51.8 °F 72% 29.90 in 10.0 mi SSW 13.8 mph 20.7 mph N/A   Clear
11:35 PM 60.8 °F 51.8 °F 72% 29.90 in 10.0 mi SSW 13.8 mph 18.4 mph N/A   Clear
11:55 PM 60.8 °F 51.8 °F 72% 29.90 in 10.0 mi SSW 15.0 mph 19.6 mph N/A   Clear